[Iaude] MPEC M116: 2024 MH1 [a=1.37,e=0.28,i=5.0,H=25.6]
    mpec at cfa.harvard.edu 
    mpec at cfa.harvard.edu
       
    Sun Jun 30 01:48:42 EDT 2024
    
    
  
M.P.E.C. 2024-M116                                Issued 2024 June 30, 05:47 UT
     The Minor Planet Electronic Circulars contain information on unusual
         minor planets, routine data on comets and natural satellites,
         and occasional editorial announcements.  They are published
    on behalf of Division F of the International Astronomical Union by the
          Minor Planet Center, Smithsonian Astrophysical Observatory,
                          Cambridge, MA 02138, U.S.A.
			  
             Prepared using the Tamkin Foundation Computer Network
                              MPC at CFA.HARVARD.EDU
            URL https://www.minorplanetcenter.net/    ISSN 1523-6714
                                    2024 MH1                                    
Observations:
     K24M01H* C2024 06 28.40041016 53 31.009+03 38 27.94         21.83wXEM116F52
     K24M01H  C2024 06 28.41099116 53 29.613+03 38 30.31         21.87wXEM116F52
     K24M01H  C2024 06 28.43214716 53 26.812+03 38 34.73         21.97wXEM116F52
     K24M01H  C2024 06 28.46756416 53 22.241+03 38 41.91         21.77GVEM116F51
     K24M01H  C2024 06 28.46820616 53 22.171+03 38 41.87         21.87GVEM116F51
     K24M01H 3C2024 06 29.38955016 51 53.377+03 41 46.78         21.64GVEM116T14
     K24M01H 3C2024 06 29.39052616 51 53.245+03 41 46.95         21.68GVEM116T14
     K24M01H 3C2024 06 29.39150416 51 53.106+03 41 47.13         21.54GVEM116T14
     K24M01H |C2024 06 30.08584016 50 44.260+03 45 02.90         21.7 GVEM116807
     K24M01H |C2024 06 30.09686016 50 42.720+03 45 04.70         21.5 GVEM116807
     K24M01H |C2024 06 30.10787016 50 41.170+03 45 06.60         21.5 GVEM116807
     K24M01H KC2024 06 30.22156 16 50 29.20 +03 43 40.5          21.7 GVEM116291
     K24M01H KC2024 06 30.22453 16 50 28.75 +03 43 41.6          22.3 GVEM116291
     K24M01H KC2024 06 30.22748 16 50 28.36 +03 43 41.9          22.3 GVEM116291
Observer details:
291 LPL/Spacewatch II.  Observer R. A. Mastaler.  1.8-m f/2.7 reflector + CCD.
807 Cerro Tololo Observatory, La Serena.  Observers T. Linder, R. Holmes.
    0.61-m f/6.8 Ritchey-Chretien + CCD.
F51 Pan-STARRS 1, Haleakala.  Observers J. Herman, T. Lowe, P. Minguez, A.
    Schultz, I. Smith.  Measurers K. Chambers, T. de Boer, J. Fairlamb, H.
    Gao, M. Huber, C.-C. Lin, E. Magnier, Y. Ramanjooloo, R. Wainscoat, R.
    Weryk.  1.8-m Ritchey-Chretien + CCD.
F52 Pan-STARRS 2, Haleakala.  Observers J. Herman, T. Lowe, P. Minguez, A.
    Schultz, I. Smith.  Measurers K. Chambers, T. de Boer, J. Fairlamb, H.
    Gao, M. Huber, C.-C. Lin, E. Magnier, Y. Ramanjooloo, R. Wainscoat, R.
    Weryk.  1.8-m Ritchey-Chretien + CCD.
T14 Canada-France-Hawaii Telescope, Maunakea.  Observers R. Wainscoat, A.
    Acohido, T. Burdullis.  Measurers R. Weryk, R. Wainscoat.  3.6-m f/4.1
    reflector + CCD.
Orbital elements:
2024 MH1                                                 Earth MOID = 0.0010 AU
Epoch 2024 Mar. 31.0 TT = JDT 2460400.5                 MPC                     
M 270.65777              (2000.0)            P               Q                  
n   0.61791684     Peri.  213.16008     +0.89552176     +0.43866642             
a   1.3651573      Node   120.64654     -0.38700397     +0.85077525             
e   0.2840659      Incl.    4.99562     -0.21970141     +0.28940153             
P   1.60           H   25.61          G   0.15           U   8                  
Residuals in seconds of arc
240628 F52  0.0   0.1-    240629 T14  0.0   0.0     240630 807  0.1+  0.1+
240628 F52  0.1+  0.0     240629 T14  0.0   0.0     240630 291  0.1+  0.4-
240628 F52  0.1-  0.0     240629 T14  0.0   0.0     240630 291  0.3-  0.3+
240628 F51  0.1-  0.1+    240630 807  0.1+  0.2-    240630 291  0.1+  0.2+
240628 F51  0.1+  0.1-    240630 807  0.1+  0.1-
Ephemeris:
2024 MH1                 a,e,i = 1.37, 0.28, 5                   q = 0.9774
Date    TT    R. A. (2000) Decl.     Delta      r    Elong.  Phase     V
2024 05 31    17 20 09.3 -00 54 50   0.2125  1.2111   156.0    19.9    23.7
...
2024 06 15    17 10 15.6 +02 02 51   0.1446  1.1475   154.0    22.8    22.8
...
2024 06 23    17 01 19.0 +03 10 23   0.1137  1.1153   148.9    28.1    22.4
...
2024 06 29    16 52 33.5 +03 41 00   0.09226 1.0924   143.7    33.4    22.0
2024 06 30    16 50 51.9 +03 43 55   0.08879 1.0887   142.8    34.4    22.0
2024 07 01    16 49 05.3 +03 46 05   0.08535 1.0850   141.8    35.4    21.9
...
2024 07 07    16 36 07.4 +03 39 40   0.06521 1.0639   135.1    42.4    21.5
...
2024 07 15    16 05 25.8 +02 02 25   0.03944 1.0385   123.0    55.2    20.7
...
2024 07 30    08 08 09.5 -15 16 49   0.01717 1.0011    34.6   144.9    24.3
A. U. Tomatic                (C) Copyright 2024 MPC           M.P.E.C. 2024-M116
    
    
More information about the Iaude
mailing list